Ankara, Turkey

11:56 AM +03 on December 14, 2017 (GMT +0300)
Esenboga

Weather History for LTAC - October, 2013

Change the Weather History Date:

Thursday, October 3, 2013

  Actual Average Record
Temperature  
Mean Temperature 48 °F -  
Max Temperature 56 °F 63 °F 87 °F (1999)
Min Temperature 37 °F 37 °F 37 °F (2000)
Degree Days  
Heating Degree Days 16    
Moisture  
Dew Point 36 °F    
Average Humidity 60    
Maximum Humidity 76    
Minimum Humidity 33    
Precipitation  
Precipitation 0.01 in - - ()
Sea Level Pressure  
Sea Level Pressure 29.95 in    
Wind  
Wind Speed 9 mph ()    
Max Wind Speed 18 mph    
Max Gust Speed -    
Visibility 6.6 miles    
Events Rain    
Averages and records for this station are not official NWS values.
T = Trace of Precipitation, MM = Missing Value Source: Averaged Metar Reports

Daily Weather History Graph

Daily Weather History Graph

Search for Another Location

Airport or City:

Trip Planner

Search our weather history database for the weather conditions in past years. The results will help you decide how hot, cold, wet, or windy it might be!

Date:

Astronomy

Oct. 03, 2013 Rise Set
Actual Time 6:46 AM EEST 6:27 PM EEST
Civil Twilight 6:19 AM EEST 6:54 PM EEST
Nautical Twilight 5:47 AM EEST 7:25 PM EEST
Astronomical Twilight 5:16 AM EEST 7:57 PM EEST
Moon 4:58 AM EEST (10/3) 5:24 PM EEST (10/3)
Length of Visible Light 12h 35m
Length of Day
11h 40m
Waning Crescent, 3% of the Moon is Illuminated
Oct 3
Waning Crescent
Oct 5
New
Oct 12
First Quarter
Oct 19
Full
Oct 27
Last Quarter

Hourly Weather History & Observations

Time (EEST) Temp. Windchill Dew Point Humidity Pressure Visibility Wind Dir Wind Speed Gust Speed Precip Events Conditions
12:20 AM 51.8 °F - 41.0 °F 67% 29.86 in 6.2 mi WNW 10.4 mph - N/A   Mostly Cloudy
12:50 AM 51.8 °F - 42.8 °F 71% 29.86 in 6.2 mi WNW 6.9 mph - N/A Rain Light Rain Showers
1:20 AM 50.0 °F - 42.8 °F 76% 29.86 in 6.2 mi WNW 4.6 mph - N/A Rain Light Rain Showers
1:50 AM 50.0 °F - 41.0 °F 71% 29.86 in 6.2 mi WNW 10.4 mph - N/A Rain Light Rain Showers
2:20 AM 50.0 °F - 41.0 °F 71% 29.86 in 6.2 mi WNW 8.1 mph - N/A   Mostly Cloudy
2:50 AM 51.8 °F - 39.2 °F 62% 29.86 in 6.2 mi NW 11.5 mph - N/A   Mostly Cloudy
3:00 AM 51 °F - 39 °F 53% 29.79 in 12 mi NW 11.5 mph - - Rain Light Rain Showers
3:20 AM 50.0 °F - 41.0 °F 71% 29.86 in 6.2 mi West 4.6 mph - N/A   Mostly Cloudy
3:50 AM 50.0 °F - 39.2 °F 66% 29.86 in 6.2 mi West 6.9 mph - N/A   Mostly Cloudy
4:20 AM 48.2 °F - 39.2 °F 71% 29.86 in 6.2 mi WSW 6.9 mph - N/A   Mostly Cloudy
4:50 AM 48.2 °F - 39.2 °F 71% 29.86 in 6.2 mi West 8.1 mph - N/A   Mostly Cloudy
5:20 AM 50.0 °F - 39.2 °F 66% 29.86 in 6.2 mi NW 8.1 mph - N/A   Mostly Cloudy
5:50 AM 48.2 °F - 37.4 °F 66% 29.86 in 6.2 mi West 5.8 mph - N/A   Mostly Cloudy
6:20 AM 48.2 °F - 37.4 °F 66% 29.89 in 6.2 mi West 8.1 mph - N/A   Mostly Cloudy
6:36 AM 48.2 °F - 37.4 °F 66% 29.89 in 6.2 mi West 6.9 mph - N/A Rain Light Rain Showers
6:50 AM 48.2 °F - 37.4 °F 66% 29.89 in 6.2 mi NW 4.6 mph - N/A Rain Light Rain Showers
7:20 AM 48.2 °F - 39.2 °F 71% 29.89 in 6.2 mi West 8.1 mph - N/A   Mostly Cloudy
7:50 AM 48.2 °F - 39.2 °F 71% 29.92 in 6.2 mi WSW 3.5 mph - N/A   Mostly Cloudy
8:20 AM 48.2 °F - 39.2 °F 71% 29.92 in 6.2 mi West 6.9 mph - N/A   Mostly Cloudy
8:50 AM 48.2 °F - 39.2 °F 71% 29.92 in 6.2 mi WNW 9.2 mph - N/A   Mostly Cloudy
9:00 AM 49 °F - 39 °F 58% 29.90 in 12 mi WNW 9.2 mph - -   Partly Cloudy
9:20 AM 48.2 °F - 39.2 °F 71% 29.92 in 6.2 mi WNW 11.5 mph - N/A   Mostly Cloudy
9:50 AM 48.2 °F - 39.2 °F 71% 29.95 in 6.2 mi WNW 9.2 mph - N/A   Mostly Cloudy
10:14 AM 48.2 °F - 39.2 °F 71% 29.95 in 6.2 mi WNW 10.4 mph - N/A Rain Light Rain Showers
10:20 AM 48.2 °F - 39.2 °F 71% 29.95 in 6.2 mi WNW 8.1 mph - N/A   Mostly Cloudy
10:50 AM 50.0 °F - 39.2 °F 66% 29.95 in 6.2 mi West 10.4 mph - N/A   Mostly Cloudy
11:20 AM 50.0 °F - 37.4 °F 62% 29.95 in 6.2 mi West 9.2 mph - N/A   Mostly Cloudy
11:50 AM 51.8 °F - 35.6 °F 54% 29.95 in 6.2 mi West 9.2 mph - N/A   Mostly Cloudy
12:20 PM 51.8 °F - 35.6 °F 54% 29.95 in 6.2 mi West 10.4 mph - N/A   Mostly Cloudy
12:50 PM 51.8 °F - 33.8 °F 50% 29.95 in 6.2 mi NW 10.4 mph - N/A   Mostly Cloudy
1:20 PM 53.6 °F - 33.8 °F 47% 29.95 in 6.2 mi West 8.1 mph - N/A   Mostly Cloudy
1:50 PM 55.4 °F - 35.6 °F 47% 29.95 in 6.2 mi West 11.5 mph - N/A   Mostly Cloudy
2:20 PM 53.6 °F - 32.0 °F 44% 29.95 in 6.2 mi NW 15.0 mph - N/A   Mostly Cloudy
2:50 PM 53.6 °F - 33.8 °F 47% 29.95 in 6.2 mi NW 16.1 mph - N/A   Scattered Clouds
3:00 PM 54 °F - 33 °F 33% 29.92 in 12 mi NW 16.1 mph - -   Partly Cloudy
3:20 PM 53.6 °F - 32.0 °F 44% 29.95 in 6.2 mi NW 16.1 mph - N/A   Scattered Clouds
3:50 PM 51.8 °F - 32.0 °F 47% 29.98 in 6.2 mi WNW 16.1 mph - N/A   Scattered Clouds
4:20 PM 51.8 °F - 32.0 °F 47% 29.98 in 6.2 mi WNW 17.3 mph - N/A   Scattered Clouds
4:50 PM 50.0 °F - 32.0 °F 50% 29.98 in 6.2 mi WNW 17.3 mph - N/A   Scattered Clouds
5:20 PM 50.0 °F - 30.2 °F 47% 30.01 in 6.2 mi NW 16.1 mph - N/A   Mostly Cloudy
5:50 PM 48.2 °F - 30.2 °F 50% 30.01 in 6.2 mi WNW 18.4 mph - N/A   Mostly Cloudy
6:20 PM 48.2 °F - 30.2 °F 50% 30.01 in 6.2 mi WNW 17.3 mph - N/A   Mostly Cloudy
6:50 PM 46.4 °F 40.7 °F 30.2 °F 53% 30.04 in 6.2 mi NW 12.7 mph - N/A   Mostly Cloudy
7:20 PM 46.4 °F 41.5 °F 32.0 °F 57% 30.04 in 6.2 mi NNW 10.4 mph - N/A   Mostly Cloudy
7:50 PM 46.4 °F 41.5 °F 30.2 °F 53% 30.06 in 6.2 mi NNW 10.4 mph - N/A   Mostly Cloudy
8:20 PM 46.4 °F 41.9 °F 30.2 °F 53% 30.06 in 6.2 mi NNW 9.2 mph - N/A   Mostly Cloudy
8:50 PM 44.6 °F 38.4 °F 30.2 °F 57% 30.06 in 6.2 mi NNW 12.7 mph - N/A   Mostly Cloudy
9:00 PM 45 °F - 30 °F 44% 30.08 in 12 mi NNW 12.7 mph - -   Partly Cloudy
9:20 PM 44.6 °F 40.7 °F 30.2 °F 57% 30.06 in 6.2 mi NW 6.9 mph - N/A   Scattered Clouds
9:50 PM 44.6 °F 41.4 °F 32.0 °F 61% 30.06 in 6.2 mi West 5.8 mph - N/A   Scattered Clouds
10:20 PM 42.8 °F 38.6 °F 32.0 °F 66% 30.09 in 6.2 mi West 6.9 mph - N/A   Scattered Clouds
10:50 PM 41.0 °F 38.0 °F 32.0 °F 70% 30.09 in 6.2 mi West 4.6 mph - N/A   Scattered Clouds
11:20 PM 41.0 °F 37.1 °F 30.2 °F 65% 30.09 in 6.2 mi WSW 5.8 mph - N/A   Partly Cloudy
11:50 PM 37.4 °F 32.1 °F 30.2 °F 75% 30.09 in 6.2 mi WSW 6.9 mph - N/A   Partly Cloudy